Latest Coastal Weather Observations for Cape Otway

IDT60701

Issued at 11:41 pm EDT Monday 2 March 2015 (issued every 10 minutes, with the page automatically refreshed every 10 minutes)

About coastal observations | Map of coastal stations | Coastal observations for TAS | Marine services | Other Formats
Station Details ID: 090015 Name: CAPE OTWAY LIGHTHOUSE Lat: -38.86 Lon: 143.51 Height: 82.0 m
Data from the previous 72 hours. | See also: Recent months at Cape Otway
Date/Time
EDT
Temp

°C
Wind Pressure Rain
since 9am
mm
Weather Cloud Vis
km
Sea
Height
m
Swell
Dir
 
Speed
knots
Gust
knots
hPa Trend Height
m
Period
s
Dir
02/11:30pm 15.4 SW 4 7 1016.7 - 0.0 - - - - - - -
02/11:00pm 14.1 W 2 4 1016.7 - 0.0 - - - - - - -
02/10:30pm 14.8 CALM 0 0 1016.7 - 0.0 - - - - - - -
02/10:00pm 15.6 SSW 1 4 1016.7 - 0.0 - - - - - - -
02/09:30pm 15.4 W 3 4 1016.4 - 0.0 - - - - - - -
02/09:00pm 15.2 NNE 1 3 1016.1 - 0.0 - - - - - - -
02/08:30pm 15.7 CALM 0 4 1015.9 - 0.0 - - - - - - -
02/08:00pm 16.5 CALM 0 0 1015.9 - 0.0 - - - - - - -
02/07:30pm 16.8 E 1 3 1015.7 - 0.0 - - - - - - -
02/07:00pm 17.1 ESE 4 5 1015.3 - 0.0 - - - - - - -
02/06:30pm 17.3 E 5 7 1015.2 - 0.0 - - - - - - -
02/06:00pm 17.9 ENE 6 10 1014.8 - 0.0 - - - - - - -
02/05:30pm 17.5 E 7 10 1014.6 - 0.0 - - - - - - -
02/05:00pm 17.7 E 6 9 1014.3 - 0.0 - - - - - - -
02/04:30pm 18.4 E 7 11 1014.4 - 0.0 - - - - - - -
02/04:00pm 18.8 E 7 12 1014.7 - 0.0 - - - - - - -
02/03:30pm 18.7 E 12 14 1015.0 - 0.0 - - - - - - -
02/03:00pm 18.7 E 9 15 1015.3 - 0.0 - - - - - - -
02/02:30pm 18.6 E 8 13 1015.8 - 0.0 - - - - - - -
02/02:00pm 17.8 E 8 14 1016.0 - 0.0 - - - - - - -
02/01:30pm 17.9 E 11 15 1016.2 - 0.0 - - - - - - -
02/01:00pm 19.0 E 11 17 1016.3 - 0.0 - - - - - - -
02/12:30pm 18.9 E 9 16 1016.8 - 0.0 - - - - - - -
02/12:00pm 18.1 E 11 16 1017.2 - 0.0 - - - - - - -
02/11:30am 17.8 E 8 14 1017.9 - 0.0 - - - - - - -
02/11:00am 16.8 E 9 13 1018.2 - 0.0 - - - - - - -
02/10:30am 16.9 E 8 12 1018.1 - 0.0 - - - - - - -
02/10:00am 15.8 ESE 8 10 1018.6 - 0.0 - - - - - - -
02/09:30am 16.3 ESE 6 9 1018.6 - 0.0 - - - - - - -
02/09:00am 15.2 NE 4 6 1018.7 - 0.0 - - - - - - -
02/08:30am 13.4 NNE 5 6 1018.7 - 0.0 - - - - - - -
02/08:00am 12.0 NNE 7 8 1018.3 - 0.0 - - - - - - -
02/07:30am 11.1 NNE 7 8 1018.3 - 0.0 - - - - - - -
02/07:00am 10.7 NE 7 8 1018.0 - 0.0 - - - - - - -
02/06:30am 10.5 NE 8 9 1017.8 - 0.0 - - - - - - -
02/06:00am 10.0 N 8 9 1017.7 - 0.0 - - - - - - -
02/05:30am 9.1 N 7 9 1018.1 - 0.0 - - - - - - -
02/05:00am 9.0 N 5 7 1018.0 - 0.0 - - - - - - -
02/04:30am 9.0 N 5 5 1018.1 - 0.0 - - - - - - -
02/04:00am 9.2 NNE 1 4 1018.0 - 0.0 - - - - - - -
02/03:30am 9.6 NNE 3 5 1018.4 - 0.0 - - - - - - -
02/03:00am 10.1 N 3 5 1018.6 - 0.0 - - - - - - -
02/02:30am 10.3 N 3 5 1018.7 - 0.0 - - - - - - -
02/02:00am 10.2 CALM 0 3 1019.3 - 0.0 - - - - - - -
02/01:30am 11.2 WSW 2 4 1019.2 - 0.0 - - - - - - -
02/01:00am 13.1 CALM 0 3 1019.2 - 0.0 - - - - - - -
02/12:30am 13.5 SSW 3 5 1019.1 - 0.0 - - - - - - -
02/12:00am 13.5 SSW 2 5 1019.0 - 0.0 - - - - - - -
 
Date/Time
EDT
Temp

°C
Wind Pressure Rain
since 9am
mm
Weather Cloud Vis
km
Sea
Height
m
Swell
Dir
 
Speed
knots
Gust
knots
hPa Trend Height
m
Period
s
Dir
01/11:30pm 13.9 SW 4 7 1019.2 - 0.0 - - - - - - -
01/11:00pm 13.9 S 4 8 1019.5 - 0.0 - - - - - - -
01/10:30pm 14.4 SW 5 9 1019.4 - 0.0 - - - - - - -
01/10:00pm 14.4 SW 5 9 1019.4 - 0.0 - - - - - - -
01/09:30pm 14.5 SSW 8 12 1019.2 - 0.0 - - - - - - -
01/09:00pm 14.5 SSW 4 8 1018.9 - 0.0 - - - - - - -
01/08:30pm 14.3 SSW 5 9 1018.5 - 0.0 - - - - - - -
01/08:00pm 14.2 SSW 7 11 1018.2 - 0.0 - - - - - - -
01/07:30pm 14.7 SSW 9 13 1018.2 - 0.0 - - - - - - -
01/07:00pm 15.1 SSW 10 13 1018.3 - 0.0 - - - - - - -
01/06:30pm 14.9 SSW 12 16 1018.1 - 0.0 - - - - - - -
01/06:00pm 15.4 SSW 13 19 1017.8 - 0.0 - - - - - - -
01/05:30pm 15.3 SSW 14 19 1017.6 - 0.0 - - - - - - -
01/05:00pm 15.4 SSW 15 20 1017.9 - 0.0 - - - - - - -
01/04:30pm 16.1 SSW 15 19 1017.7 - 0.0 - - - - - - -
01/04:00pm 15.6 SSW 17 23 1017.3 - 0.0 - - - - - - -
01/03:30pm 16.1 SSW 16 23 1016.9 - 0.0 - - - - - - -
01/03:00pm 16.1 SSW 15 20 1016.8 - 0.0 - - - - - - -
01/02:30pm 16.0 SSW 15 22 1016.9 - 0.0 - - - - - - -
01/02:09pm 16.1 SSW 15 25 1016.6 - 0.0 - - - - - - -
01/02:00pm 17.0 SSW 14 19 1016.6 - 0.0 - - - - - - -
01/01:30pm 16.2 SSW 18 22 1016.2 - 0.0 - - - - - - -
01/01:00pm 17.1 SSW 13 17 1015.9 - 0.0 - - - - - - -
01/12:30pm 17.8 SSW 13 18 1015.7 - 0.0 - - - - - - -
01/12:00pm 17.6 SSW 11 16 1015.3 - 0.0 - - - - - - -
01/11:30am 17.4 SSW 11 16 1015.2 - 0.0 - - - - - - -
01/11:00am 16.6 SSW 12 17 1014.5 - 0.0 - - - - - - -
01/10:30am 16.7 SSW 13 18 1014.1 - 0.0 - - - - - - -
01/10:00am 16.6 SSW 15 19 1013.5 - 0.0 - - - - - - -
01/09:30am 15.4 SSW 13 20 1013.1 - 0.0 - - - - - - -
01/09:00am 16.4 SW 13 17 1012.4 - 6.6 - - - - - - -
01/08:30am 16.3 SSW 14 18 1011.9 - 6.6 - - - - - - -
01/08:00am 16.0 SSW 14 18 1011.3 - 6.6 - - - - - - -
01/07:30am 16.1 SSW 14 20 1010.7 - 6.6 - - - - - - -
01/07:00am 15.9 SSW 13 18 1010.1 - 6.6 - - - - - - -
01/06:30am 16.0 SSW 14 19 1009.5 - 6.6 - - - - - - -
01/06:00am 16.0 SW 15 20 1009.0 - 6.6 - - - - - - -
01/05:30am 16.0 SW 15 21 1008.7 - 6.6 - - - - - - -
01/05:00am 15.9 SSW 12 16 1008.2 - 6.6 - - - - - - -
01/04:30am 16.0 SSW 12 16 1008.0 - 6.6 - - - - - - -
01/04:00am 16.0 SW 15 18 1007.8 - 6.6 - - - - - - -
01/03:30am 15.7 SW 14 19 1007.8 - 6.6 - - - - - - -
01/03:00am 15.9 SW 16 20 1007.5 - 6.6 - - - - - - -
01/02:30am 16.1 SW 16 23 1007.6 - 6.6 - - - - - - -
01/02:00am 16.2 SW 14 19 1007.6 - 6.6 - - - - - - -
01/01:30am 16.2 SW 15 20 1007.5 - 6.6 - - - - - - -
01/01:00am 16.2 SW 16 21 1007.3 - 6.6 - - - - - - -
01/12:30am 16.2 SW 15 21 1007.1 - 6.6 - - - - - - -
01/12:00am 16.2 SW 18 23 1006.6 - 6.6 - - - - - - -
 
Date/Time
EDT
Temp

°C
Wind Pressure Rain
since 9am
mm
Weather Cloud Vis
km
Sea
Height
m
Swell
Dir
 
Speed
knots
Gust
knots
hPa Trend Height
m
Period
s
Dir
28/11:30pm 16.2 SW 20 26 1006.8 - 6.6 - - - - - - -
28/11:00pm 16.2 SW 19 25 1006.8 - 6.6 - - - - - - -
28/10:30pm 16.4 SW 18 26 1006.5 - 6.6 - - - - - - -
28/10:00pm 16.7 WSW 14 22 1006.1 - 6.4 - - - - - - -
28/09:30pm 17.3 W 11 15 1005.4 - 6.2 - - - - - - -
28/09:00pm 17.4 W 12 17 1005.0 - 6.2 - - - - - - -
28/08:30pm 17.4 W 12 16 1004.5 - 6.2 - - - - - - -
28/08:00pm 17.8 W 11 14 1004.5 - 6.2 - - - - - - -
28/07:30pm 18.2 W 17 24 1004.5 - 5.0 - - - - - - -
28/07:19pm 18.8 W 15 27 1005.3 - 1.2 - - - - - - -
28/07:15pm 19.0 W 11 19 1004.3 - 0.6 - - - - - - -
28/07:00pm 19.4 NNW 3 6 1002.0 - 0.6 - - - - - - -
28/06:30pm 20.0 CALM 0 0 1001.9 - 0.4 - - - - - - -
28/06:00pm 20.6 N 4 9 1002.3 - 0.4 - - - - - - -
28/05:30pm 21.1 W 6 10 1003.3 - 0.0 - - - - - - -
28/05:00pm 22.2 SW 5 8 1002.5 - 0.0 - - - - - - -
28/04:30pm 22.6 SW 6 8 1003.1 - 0.0 - - - - - - -
28/04:00pm 23.5 SSE 5 8 1002.6 - 0.0 - - - - - - -
28/03:30pm 22.7 E 5 7 1002.3 - 0.0 - - - - - - -
28/03:00pm 24.8 N 6 10 1002.4 - 0.0 - - - - - - -
28/02:30pm 24.6 NNW 5 9 1002.7 - 0.0 - - - - - - -
28/02:00pm 24.2 N 11 16 1002.8 - 0.0 - - - - - - -
28/01:30pm 23.8 N 10 14 1003.4 - 0.0 - - - - - - -
28/01:00pm 23.7 NNW 9 16 1003.9 - 0.0 - - - - - - -
28/12:30pm 23.9 NNW 7 11 1004.4 - 0.0 - - - - - - -
28/12:00pm 23.2 WNW 7 9 1004.4 - 0.0 - - - - - - -
28/11:30am 24.0 NW 11 16 1004.4 - 0.0 - - - - - - -
28/11:00am 22.5 WNW 9 16 1004.9 - 0.0 - - - - - - -
28/10:30am 21.9 NW 8 15 1004.9 - 0.0 - - - - - - -
28/10:00am 22.3 NW 14 22 1005.1 - 0.0 - - - - - - -
28/09:38am 22.3 NW 15 27 1005.1 - 0.0 - - - - - - -
28/09:30am 22.1 NW 14 20 1005.0 - 0.0 - - - - - - -
28/09:00am 20.8 N 14 19 1003.9 - 0.2 - - - - - - -
28/08:30am 20.4 N 11 17 1004.3 - 0.2 - - - - - - -
28/08:00am 19.5 N 6 10 1004.5 - 0.2 - - - - - - -
28/07:30am 17.8 NW 5 10 1004.8 - 0.2 - - - - - - -
28/07:00am 16.3 NE 7 9 1004.5 - 0.2 - - - - - - -
28/06:30am 16.1 E 6 8 1004.6 - 0.2 - - - - - - -
28/06:00am 16.2 E 4 6 1004.6 - 0.2 - - - - - - -
28/05:30am 16.2 NE 7 11 1004.7 - 0.2 - - - - - - -
28/05:00am 15.7 ENE 9 13 1004.9 - 0.2 - - - - - - -
28/04:30am 15.7 ENE 11 18 1005.4 - 0.2 - - - - - - -
28/04:00am 15.7 ENE 11 17 1006.1 - 0.2 - - - - - - -
28/03:30am 15.7 ENE 12 18 1006.8 - 0.2 - - - - - - -
28/03:00am 15.5 ENE 10 15 1007.3 - 0.2 - - - - - - -
28/02:30am 15.5 ENE 8 13 1008.2 - 0.2 - - - - - - -
28/02:00am 15.5 NE 11 15 1008.7 - 0.2 - - - - - - -
28/01:30am 15.2 NE 9 12 1009.2 - 0.2 - - - - - - -
28/01:00am 15.0 ENE 9 11 1009.6 - 0.2 - - - - - - -
28/12:30am 15.1 ENE 10 13 1009.8 - 0.2 - - - - - - -
28/12:00am 15.3 E 11 13 1009.9 - 0.2 - - - - - - -

Other Formats:

Comma delimited format used in spreadsheet applications
http://www.bom.gov.au/fwo/IDT60701/IDT60701.94842.axf

JavaScript Object Notation format (JSON) in row-major order
http://www.bom.gov.au/fwo/IDT60701/IDT60701.94842.json